Home   Weather   Tromsø   Past weeks

Flag for Norway Past Weather in Tromsø, Norway — Yesterday and Last 2 Weeks

Now
32 °F

Sunny.


Feels Like: 28 °F
Forecast: 21 / 34 °F
Wind: 3 mph from Northeast

Location: Tromso / Langnes

Current Time: Apr 23, 2017 at 10:18:16 pm

Latest Report: Apr 23, 2017 at 9:00 pm


Visibility: 31 mi

Pressure: 29.70 "Hg

Humidity: 54%

Dew Point: 17 °F

Location of TromsøLocation

Past Weather in Tromsø — Graph

°F

Tromsø Temperature Yesterday

Maximum temperature yesterday: 38 °F (at 4:00 pm)
Minimum temperature yesterday: 32 °F (at 1:00 am)
Average temperature yesterday: 35 °F

High & Low Weather Summary for the Past Weeks

 TemperatureHumidityPressure
High39 °F (Apr 21, 4:00 pm)96% (Apr 18, 11:00 am)30.36 "Hg (Apr 18, 11:00 am)
Low21 °F (Apr 15, 4:00 am)39% (Apr 23, 5:00 pm)29.06 "Hg (Apr 21, 7:00 am)
Average31 °F68%29.76 "Hg
* Reported Apr 8 8:00 pm — Apr 23 8:00 pm, Tromsø, Weather by CustomWeather, © 2017

Note: Actual official high and low records may vary slightly from our data, if they occured in-between our weather recording intervals... More about our weather records

Advertising

Tromsø Weather History for the Previous 24 Hours

Scroll right to see more
 ConditionsComfort  
Time TempWeatherWind HumidityBarometerVisibility
8:00 pm
Sun, Apr 23
33 °FSunny.6 mph44%29.69 "Hg25 mi
7:00 pm34 °FSunny.6 mph42%29.68 "Hg25 mi
6:00 pm36 °FSunny.5 mph40%29.67 "Hg25 mi
5:00 pm36 °FSunny.5 mph39%29.66 "Hg25 mi
4:00 pm36 °FSunny.5 mph41%29.65 "Hg19 mi
3:00 pm36 °FSunny.6 mph41%29.65 "Hg19 mi
2:00 pm37 °FSunny.3 mph41%29.64 "Hg25 mi
1:00 pm36 °FSunny.3 mph41%29.63 "Hg22 mi
12:00 pm37 °FSunny.3 mph41%29.62 "Hg19 mi
11:00 am37 °FSunny.3 mph43%29.61 "Hg22 mi
10:00 am36 °FSunny.3 mph45%29.60 "Hg22 mi
9:00 am36 °FSunny.2 mph48%29.59 "Hg22 mi
8:00 am35 °FSunny.2 mph50%29.57 "Hg22 mi
7:00 am34 °FPassing clouds.5 mph53%29.56 "Hg28 mi
6:00 am33 °FSunny.5 mph58%29.56 "Hg22 mi
5:00 am32 °FScattered clouds.3 mph65%29.55 "Hg31 mi
4:00 am33 °FClear.3 mph61%29.54 "Hg28 mi
3:00 am34 °FPassing clouds.7 mph59%29.54 "Hg31 mi
2:00 am33 °FClear.6 mph62%29.50 "Hg31 mi
1:00 am34 °FClear.6 mph59%29.50 "Hg31 mi
12:00 am35 °FClear.7 mph60%29.50 "Hg28 mi
11:00 pm
Sat, Apr 22
32 °FClear.3 mph67%29.50 "Hg31 mi
10:00 pm35 °FClear.3 mph60%29.50 "Hg31 mi
Weather by CustomWeather, © 2017

See weather overviewHow to use our weather pages